Time,TemperatureF,DewpointF,PressureIn,WindDirection,WindDirectionDegrees,WindSpeedMPH,WindSpeedGustMPH,Humidity,HourlyPrecipIn,Conditions,Clouds,dailyrainin,SolarRadiationWatts/m^2,SoftwareType,DateUTC
2013-03-05 00:11:00,31.0,24.0,-100.00,NW,318,4.0,11.0,74,0.00,,,0.00,0.000000,,2013-03-05 09:11:00,
2013-03-05 00:21:00,31.0,24.0,-100.00,NW,318,4.0,11.0,74,0.00,,,0.00,0.000000,,2013-03-05 09:21:00,
2013-03-05 00:31:00,31.0,24.0,-100.00,NW,318,4.0,11.0,74,0.00,,,0.00,0.000000,,2013-03-05 09:31:00,
2013-03-05 00:42:00,31.0,24.0,-100.00,NW,318,4.0,11.0,74,0.00,,,0.00,0.000000,,2013-03-05 09:42:00,
2013-03-05 00:51:00,31.0,24.0,-100.00,NW,318,4.0,11.0,74,0.00,,,0.00,0.000000,,2013-03-05 09:51:00,
2013-03-05 01:21:00,29.0,22.0,-100.00,NW,323,2.0,7.0,76,0.00,,,0.00,0.000000,,2013-03-05 10:21:00,
2013-03-05 01:32:00,29.0,22.0,-100.00,NW,323,2.0,7.0,76,0.00,,,0.00,0.000000,,2013-03-05 10:32:00,
2013-03-05 01:42:00,29.0,22.0,-100.00,NW,323,2.0,7.0,76,0.00,,,0.00,0.000000,,2013-03-05 10:42:00,
2013-03-05 01:51:00,29.0,22.0,-100.00,NW,323,2.0,7.0,76,0.00,,,0.00,0.000000,,2013-03-05 10:51:00,
2013-03-05 02:22:00,29.0,22.0,-100.00,NW,325,4.0,7.0,75,0.00,,,0.00,0.000000,,2013-03-05 11:22:00,
2013-03-05 02:32:00,29.0,22.0,-100.00,NW,325,4.0,7.0,75,0.00,,,0.00,0.000000,,2013-03-05 11:32:00,
2013-03-05 02:42:00,29.0,22.0,-100.00,NW,325,4.0,7.0,75,0.00,,,0.00,0.000000,,2013-03-05 11:42:00,
2013-03-05 02:52:00,29.0,22.0,-100.00,NW,325,4.0,7.0,75,0.00,,,0.00,0.000000,,2013-03-05 11:52:00,
2013-03-05 03:22:00,29.0,23.0,-100.00,NNW,327,3.0,6.0,79,0.00,,,0.00,0.000000,,2013-03-05 12:22:00,
2013-03-05 03:32:00,29.0,23.0,-100.00,NNW,327,3.0,6.0,79,0.00,,,0.00,0.000000,,2013-03-05 12:32:00,
2013-03-05 03:42:00,29.0,23.0,-100.00,NNW,327,3.0,6.0,79,0.00,,,0.00,0.000000,,2013-03-05 12:42:00,
2013-03-05 03:52:00,29.0,23.0,-100.00,NNW,327,3.0,6.0,79,0.00,,,0.00,0.000000,,2013-03-05 12:52:00,
2013-03-05 04:21:00,28.0,24.0,-100.00,NW,326,4.0,6.0,83,0.00,,,0.00,0.000000,,2013-03-05 13:21:00,
2013-03-05 04:32:00,28.0,24.0,-100.00,NW,326,4.0,6.0,83,0.00,,,0.00,0.000000,,2013-03-05 13:32:00,
2013-03-05 04:42:00,28.0,24.0,-100.00,NW,326,4.0,6.0,83,0.00,,,0.00,0.000000,,2013-03-05 13:42:00,
2013-03-05 04:51:00,28.0,24.0,-100.00,NW,326,4.0,6.0,83,0.00,,,0.00,0.000000,,2013-03-05 13:51:00,
2013-03-05 05:21:00,27.0,23.0,-100.00,NNW,332,3.0,5.0,83,0.00,,,0.00,0.000000,,2013-03-05 14:21:00,
2013-03-05 05:31:00,27.0,23.0,-100.00,NNW,332,3.0,5.0,83,0.00,,,0.00,0.000000,,2013-03-05 14:31:00,
2013-03-05 05:42:00,27.0,23.0,-100.00,NNW,332,3.0,5.0,83,0.00,,,0.00,0.000000,,2013-03-05 14:42:00,
2013-03-05 05:52:00,27.0,23.0,-100.00,NNW,332,3.0,5.0,83,0.00,,,0.00,0.000000,,2013-03-05 14:52:00,
2013-03-05 06:21:00,26.0,21.0,-100.00,NNW,330,3.0,6.0,81,0.00,,,0.00,0.000000,,2013-03-05 15:21:00,
2013-03-05 06:32:00,26.0,21.0,-100.00,NNW,330,3.0,6.0,81,0.00,,,0.00,0.000000,,2013-03-05 15:32:00,
2013-03-05 06:42:00,26.0,21.0,-100.00,NNW,330,3.0,6.0,81,0.00,,,0.00,0.000000,,2013-03-05 15:42:00,
2013-03-05 06:51:00,26.0,21.0,-100.00,NNW,330,3.0,6.0,81,0.00,,,0.00,0.000000,,2013-03-05 15:51:00,
2013-03-05 07:21:00,27.0,22.0,-100.00,NNW,329,3.0,6.0,81,0.00,,,0.00,8.000000,,2013-03-05 16:21:00,
2013-03-05 07:32:00,27.0,22.0,-100.00,NNW,329,3.0,6.0,81,0.00,,,0.00,8.000000,,2013-03-05 16:32:00,
2013-03-05 07:41:00,27.0,22.0,-100.00,NNW,329,3.0,6.0,81,0.00,,,0.00,8.000000,,2013-03-05 16:41:00,
2013-03-05 07:51:00,27.0,22.0,-100.00,NNW,329,3.0,6.0,81,0.00,,,0.00,8.000000,,2013-03-05 16:51:00,
2013-03-05 08:21:00,31.0,25.0,-100.00,NNW,327,4.0,6.0,79,0.00,,,0.00,151.000000,,2013-03-05 17:21:00,
2013-03-05 08:32:00,31.0,25.0,-100.00,NNW,327,4.0,6.0,79,0.00,,,0.00,151.000000,,2013-03-05 17:32:00,
2013-03-05 08:41:00,31.0,25.0,-100.00,NNW,327,4.0,6.0,79,0.00,,,0.00,151.000000,,2013-03-05 17:41:00,
2013-03-05 08:52:00,31.0,25.0,-100.00,NNW,327,4.0,6.0,79,0.00,,,0.00,151.000000,,2013-03-05 17:52:00,
2013-03-05 09:21:00,33.0,24.0,-100.00,NNW,336,7.0,14.0,69,0.00,,,0.00,352.000000,,2013-03-05 18:21:00,
2013-03-05 09:32:00,33.0,24.0,-100.00,NNW,336,7.0,14.0,69,0.00,,,0.00,352.000000,,2013-03-05 18:32:00,
2013-03-05 09:41:00,33.0,24.0,-100.00,NNW,336,7.0,14.0,69,0.00,,,0.00,352.000000,,2013-03-05 18:41:00,
2013-03-05 09:52:00,33.0,24.0,-100.00,NNW,336,7.0,14.0,69,0.00,,,0.00,352.000000,,2013-03-05 18:52:00,
2013-03-05 10:21:00,34.0,23.0,-100.00,North,351,8.0,15.0,63,0.00,,,0.00,513.000000,,2013-03-05 19:21:00,
2013-03-05 10:32:00,34.0,23.0,-100.00,North,351,8.0,15.0,63,0.00,,,0.00,513.000000,,2013-03-05 19:32:00,
2013-03-05 10:41:00,34.0,23.0,-100.00,North,351,8.0,15.0,63,0.00,,,0.00,513.000000,,2013-03-05 19:41:00,
2013-03-05 10:51:00,34.0,23.0,-100.00,North,351,8.0,15.0,63,0.00,,,0.00,513.000000,,2013-03-05 19:51:00,
2013-03-05 11:21:00,35.0,23.0,-100.00,NNW,341,8.0,14.0,60,0.00,,,0.00,620.000000,,2013-03-05 20:21:00,
2013-03-05 11:32:00,35.0,23.0,-100.00,NNW,341,8.0,14.0,60,0.00,,,0.00,620.000000,,2013-03-05 20:32:00,
2013-03-05 11:41:00,35.0,23.0,-100.00,NNW,341,8.0,14.0,60,0.00,,,0.00,620.000000,,2013-03-05 20:41:00,
2013-03-05 11:52:00,35.0,23.0,-100.00,NNW,341,8.0,14.0,60,0.00,,,0.00,620.000000,,2013-03-05 20:52:00,
2013-03-05 12:21:00,36.0,21.0,-100.00,North,357,8.0,14.0,53,0.00,,,0.00,664.000000,,2013-03-05 21:21:00,
2013-03-05 12:31:00,36.0,21.0,-100.00,North,357,8.0,14.0,53,0.00,,,0.00,664.000000,,2013-03-05 21:31:00,
2013-03-05 12:41:00,36.0,21.0,-100.00,North,357,8.0,14.0,53,0.00,,,0.00,664.000000,,2013-03-05 21:41:00,
2013-03-05 12:52:00,36.0,21.0,-100.00,North,357,8.0,14.0,53,0.00,,,0.00,664.000000,,2013-03-05 21:52:00,
2013-03-05 13:21:00,37.0,20.0,-100.00,NW,322,7.0,14.0,49,0.00,,,0.00,651.000000,,2013-03-05 22:21:00,
2013-03-05 13:32:00,37.0,20.0,-100.00,NW,322,7.0,14.0,49,0.00,,,0.00,651.000000,,2013-03-05 22:32:00,
2013-03-05 13:41:00,37.0,20.0,-100.00,NW,322,7.0,14.0,49,0.00,,,0.00,651.000000,,2013-03-05 22:41:00,
2013-03-05 13:52:00,37.0,20.0,-100.00,NW,322,7.0,14.0,49,0.00,,,0.00,651.000000,,2013-03-05 22:52:00,
2013-03-05 14:21:00,38.0,19.0,-100.00,North,354,5.0,11.0,45,0.00,,,0.00,577.000000,,2013-03-05 23:21:00,
2013-03-05 14:32:00,38.0,19.0,-100.00,North,354,5.0,11.0,45,0.00,,,0.00,577.000000,,2013-03-05 23:32:00,
2013-03-05 14:41:00,38.0,19.0,-100.00,North,354,5.0,11.0,45,0.00,,,0.00,577.000000,,2013-03-05 23:41:00,
2013-03-05 14:52:00,38.0,19.0,-100.00,North,354,5.0,11.0,45,0.00,,,0.00,577.000000,,2013-03-05 23:52:00,
2013-03-05 15:21:00,37.0,18.0,-100.00,North,349,7.0,11.0,45,0.00,,,0.00,452.000000,,2013-03-06 00:21:00,
2013-03-05 15:32:00,37.0,18.0,-100.00,North,349,7.0,11.0,45,0.00,,,0.00,452.000000,,2013-03-06 00:32:00,
2013-03-05 15:41:00,37.0,18.0,-100.00,North,349,7.0,11.0,45,0.00,,,0.00,452.000000,,2013-03-06 00:41:00,
2013-03-05 15:51:00,37.0,18.0,-100.00,North,349,7.0,11.0,45,0.00,,,0.00,452.000000,,2013-03-06 00:51:00,
2013-03-05 16:21:00,36.0,20.0,-100.00,NNW,348,6.0,10.0,51,0.00,,,0.00,287.000000,,2013-03-06 01:21:00,
2013-03-05 16:31:00,36.0,20.0,-100.00,NNW,348,6.0,10.0,51,0.00,,,0.00,287.000000,,2013-03-06 01:31:00,
2013-03-05 16:41:00,36.0,20.0,-100.00,NNW,348,6.0,10.0,51,0.00,,,0.00,287.000000,,2013-03-06 01:41:00,
2013-03-05 16:51:00,36.0,20.0,-100.00,NNW,348,6.0,10.0,51,0.00,,,0.00,287.000000,,2013-03-06 01:51:00,
2013-03-05 17:21:00,34.0,18.0,-100.00,NNW,339,4.0,9.0,52,0.00,,,0.00,119.000000,,2013-03-06 02:21:00,
2013-03-05 17:31:00,34.0,18.0,-100.00,NNW,339,4.0,9.0,52,0.00,,,0.00,119.000000,,2013-03-06 02:31:00,
2013-03-05 17:41:00,34.0,18.0,-100.00,NNW,339,4.0,9.0,52,0.00,,,0.00,119.000000,,2013-03-06 02:41:00,
2013-03-05 17:52:00,34.0,18.0,-100.00,NNW,339,4.0,9.0,52,0.00,,,0.00,119.000000,,2013-03-06 02:52:00,
2013-03-05 18:21:00,30.0,18.0,-100.00,NNW,328,3.0,6.0,61,0.00,,,0.00,15.000000,,2013-03-06 03:21:00,
2013-03-05 18:31:00,30.0,18.0,-100.00,NNW,328,3.0,6.0,61,0.00,,,0.00,15.000000,,2013-03-06 03:31:00,
2013-03-05 18:41:00,30.0,18.0,-100.00,NNW,328,3.0,6.0,61,0.00,,,0.00,15.000000,,2013-03-06 03:41:00,
2013-03-05 18:52:00,30.0,18.0,-100.00,NNW,328,3.0,6.0,61,0.00,,,0.00,15.000000,,2013-03-06 03:52:00,
2013-03-05 19:21:00,26.0,18.0,-100.00,NNE,15,1.0,3.0,72,0.00,,,0.00,0.000000,,2013-03-06 04:21:00,
2013-03-05 19:32:00,26.0,18.0,-100.00,NNE,15,1.0,3.0,72,0.00,,,0.00,0.000000,,2013-03-06 04:32:00,
2013-03-05 19:41:00,26.0,18.0,-100.00,NNE,15,1.0,3.0,72,0.00,,,0.00,0.000000,,2013-03-06 04:41:00,
2013-03-05 19:51:00,26.0,18.0,-100.00,NNE,15,1.0,3.0,72,0.00,,,0.00,0.000000,,2013-03-06 04:51:00,
2013-03-05 20:22:00,25.0,20.0,-100.00,NW,315,2.0,4.0,81,0.00,,,0.00,0.000000,,2013-03-06 05:22:00,
2013-03-05 20:32:00,25.0,20.0,-100.00,NW,315,2.0,4.0,81,0.00,,,0.00,0.000000,,2013-03-06 05:32:00,
2013-03-05 20:42:00,25.0,20.0,-100.00,NW,315,2.0,4.0,81,0.00,,,0.00,0.000000,,2013-03-06 05:42:00,
2013-03-05 20:52:00,25.0,20.0,-100.00,NW,315,2.0,4.0,81,0.00,,,0.00,0.000000,,2013-03-06 05:52:00,
2013-03-05 21:22:00,26.0,19.0,-100.00,NNW,338,2.0,3.0,73,0.00,,,0.00,0.000000,,2013-03-06 06:22:00,
2013-03-05 21:31:00,26.0,19.0,-100.00,NNW,338,2.0,3.0,73,0.00,,,0.00,0.000000,,2013-03-06 06:31:00,
2013-03-05 21:41:00,26.0,19.0,-100.00,NNW,338,2.0,3.0,73,0.00,,,0.00,0.000000,,2013-03-06 06:41:00,
2013-03-05 21:52:00,26.0,19.0,-100.00,NNW,338,2.0,3.0,73,0.00,,,0.00,0.000000,,2013-03-06 06:52:00,
2013-03-05 22:22:00,23.0,17.0,-100.00,North,356,1.0,3.0,78,0.00,,,0.00,0.000000,,2013-03-06 07:22:00,
2013-03-05 22:31:00,23.0,17.0,-100.00,North,356,1.0,3.0,78,0.00,,,0.00,0.000000,,2013-03-06 07:31:00,
2013-03-05 22:42:00,23.0,17.0,-100.00,North,356,1.0,3.0,78,0.00,,,0.00,0.000000,,2013-03-06 07:42:00,
2013-03-05 22:52:00,23.0,17.0,-100.00,North,356,1.0,3.0,78,0.00,,,0.00,0.000000,,2013-03-06 07:52:00,
2013-03-05 23:21:00,24.0,18.0,-100.00,North,10,1.0,3.0,77,0.00,,,0.00,0.000000,,2013-03-06 08:21:00,
2013-03-05 23:31:00,24.0,18.0,-100.00,North,10,1.0,3.0,77,0.00,,,0.00,0.000000,,2013-03-06 08:31:00,
2013-03-05 23:42:00,24.0,18.0,-100.00,North,10,1.0,3.0,77,0.00,,,0.00,0.000000,,2013-03-06 08:42:00,
2013-03-05 23:52:00,24.0,18.0,-100.00,North,10,1.0,3.0,77,0.00,,,0.00,0.000000,,2013-03-06 08:52:00,